Appleton, WI

9:37 AM CST on December 09, 2019 (GMT -0600)
Outagamie County Regional

Weather History for KATW - October, 2019

Change the Weather History Date:

Thursday, October 10, 2019

  Actual Average Record
Temperature  
Mean Temperature 60 °F -  
Max Temperature 66 °F 57 °F 79 °F (1963)
Min Temperature 53 °F 40 °F 24 °F (1993)
Degree Days  
Heating Degree Days 6    
Growing Degree Days 10 (Base 50)    
Moisture  
Dew Point 49 °F    
Average Humidity 75    
Maximum Humidity 100    
Minimum Humidity 60    
Precipitation  
Precipitation 0.00 in - - ()
Sea Level Pressure  
Sea Level Pressure 30.03 in    
Wind  
Wind Speed 8 mph ()    
Max Wind Speed 17 mph    
Max Gust Speed 23 mph    
Visibility 10.0 miles    
Events Rain    
Averages and records for this station are not official NWS values.
T = Trace of Precipitation, MM = Missing Value Source: Averaged Metar Reports

Daily Weather History Graph

Daily Weather History Graph

Search for Another Location

Airport or City:

Astronomy

Oct. 10, 2019 Rise Set
Actual Time 7:02 AM CDT 6:18 PM CDT
Civil Twilight 6:33 AM CDT 6:47 PM CDT
Nautical Twilight 5:59 AM CDT 7:21 PM CDT
Astronomical Twilight 5:26 AM CDT 7:55 PM CDT
Moon 5:29 PM CDT (10/10) 3:35 AM CDT (10/10)
Length of Visible Light 12h 14m
Length of Day
11h 16m
Waxing Gibbous, 91% of the Moon is Illuminated
Oct 10
Waxing Gibbous
Oct 13
Full
Oct 21
Last Quarter
Oct 27
New
Nov 4
First Quarter

Hourly Weather History & Observations

Time (CDT) Temp. Dew Point Humidity Pressure Visibility Wind Dir Wind Speed Gust Speed Precip Events Conditions
12:15 AM 55.4 °F 42.8 °F 63% 30.09 in 10.0 mi ESE 4.6 mph - N/A   Clear
12:35 AM 55.4 °F 42.8 °F 63% 30.09 in 10.0 mi ESE 8.1 mph - N/A   Clear
12:55 AM 53.6 °F 42.8 °F 67% 30.09 in 10.0 mi SE 4.6 mph - N/A   Clear
1:15 AM 53.6 °F 42.8 °F 67% 30.10 in 10.0 mi SE 5.8 mph - N/A   Clear
1:35 AM 53.6 °F 44.6 °F 72% 30.10 in 10.0 mi ESE 4.6 mph - N/A   Clear
1:55 AM 53.6 °F 44.6 °F 72% 30.10 in 10.0 mi ESE 4.6 mph - N/A   Clear
2:15 AM 53.6 °F 44.6 °F 72% 30.10 in 10.0 mi SE 4.6 mph - N/A   Clear
2:35 AM 53.6 °F 44.6 °F 72% 30.10 in 10.0 mi ESE 5.8 mph - N/A   Clear
2:55 AM 53.6 °F 44.6 °F 72% 30.10 in 10.0 mi ESE 6.9 mph - N/A   Clear
3:15 AM 53.6 °F 46.4 °F 77% 30.10 in 10.0 mi SE 8.1 mph - N/A   Clear
3:35 AM 53.6 °F 46.4 °F 77% 30.09 in 10.0 mi SE 8.1 mph - N/A   Clear
3:55 AM 53.6 °F 46.4 °F 77% 30.09 in 10.0 mi SE 8.1 mph - N/A   Clear
4:15 AM 53.6 °F 46.4 °F 77% 30.08 in 10.0 mi ESE 8.1 mph - N/A   Clear
4:35 AM 53.6 °F 46.4 °F 77% 30.09 in 10.0 mi SE 5.8 mph - N/A   Clear
4:55 AM 53.6 °F 46.4 °F 77% 30.09 in 10.0 mi ESE 5.8 mph - N/A   Clear
5:15 AM 53.6 °F 46.4 °F 77% 30.08 in 10.0 mi ESE 8.1 mph - N/A   Clear
5:20 AM 55.4 °F 46.4 °F 72% 30.09 in 10.0 mi ESE 6.9 mph - N/A   Clear
5:45 AM 55.4 °F 46.4 °F 72% 30.07 in 10.0 mi ESE 8.1 mph - N/A   Clear
6:45 AM 55.4 °F 46.4 °F 72% 30.07 in 10.0 mi SE 8.1 mph - N/A   Partly Cloudy
7:45 AM 55.4 °F 48.2 °F 77% 30.06 in 10.0 mi ESE 6.9 mph - N/A   Partly Cloudy
8:45 AM 57.2 °F 50.0 °F 77% 30.04 in 10.0 mi ESE 9.2 mph - N/A   Scattered Clouds
9:45 AM 57.2 °F 51.8 °F 82% 30.08 in 10.0 mi SE 15.0 mph - N/A   Mostly Cloudy
10:45 AM 57.2 °F 51.8 °F 82% 30.08 in 10.0 mi ESE 10.4 mph - N/A   Mostly Cloudy
11:45 AM 59.0 °F 51.8 °F 77% 30.09 in 10.0 mi SE 8.1 mph - N/A   Mostly Cloudy
12:45 PM 64.4 °F 51.8 °F 64% 30.04 in 10.0 mi ESE 10.4 mph 18.4 mph N/A   Mostly Cloudy
1:45 PM 66.2 °F 51.8 °F 60% 30.01 in 10.0 mi ESE 11.5 mph 17.3 mph N/A   Mostly Cloudy
2:45 PM 66.2 °F 51.8 °F 60% 29.97 in 10.0 mi ESE 15.0 mph 21.9 mph N/A   Mostly Cloudy
3:45 PM 64.4 °F 51.8 °F 64% 29.96 in 10.0 mi ESE 16.1 mph 23.0 mph N/A   Mostly Cloudy
4:45 PM 62.6 °F 51.8 °F 68% 29.96 in 10.0 mi SE 16.1 mph 23.0 mph N/A   Overcast
5:45 PM 60.8 °F 51.8 °F 72% 29.96 in 10.0 mi SE 11.5 mph - N/A   Overcast
6:45 PM 62.6 °F 51.8 °F 68% 29.95 in 10.0 mi SE 12.7 mph 20.7 mph N/A   Overcast
7:45 PM 62.6 °F 51.8 °F 68% 29.93 in 10.0 mi SE 12.7 mph 18.4 mph N/A   Overcast
8:45 PM 62.6 °F 51.8 °F 68% 29.94 in 10.0 mi SSE 17.3 mph 23.0 mph N/A   Overcast
9:45 PM 60.8 °F 57.2 °F 88% 29.93 in 10.0 mi SE 12.7 mph - N/A   Overcast
10:45 PM 60.8 °F 59.0 °F 94% 29.91 in 10.0 mi SE 11.5 mph - N/A Rain Light Rain
10:55 PM 59.0 °F 59.0 °F 100% 29.90 in 10.0 mi SE 11.5 mph - N/A Rain Light Rain
11:15 PM 59.0 °F 59.0 °F 100% 29.89 in 10.0 mi ESE 13.8 mph 21.9 mph N/A Rain Rain
11:35 PM 60.8 °F 59.0 °F 94% 29.88 in 10.0 mi SE 16.1 mph - N/A   Overcast
11:55 PM 60.8 °F 59.0 °F 94% 29.87 in 10.0 mi SE 17.3 mph 20.7 mph N/A   Overcast